02-08-2023, 00:00:09,    154,    0.8,   12.4,   0.00,   0.01,  993.9,    0.7, -999.0
02-08-2023, 00:00:18,    154,    0.6,   12.3,   0.00,   0.01,  993.9,    0.5, -999.0
02-08-2023, 00:00:28,    154,    0.5,   12.4,   0.00,   0.00,  993.9,    0.4, -999.0
02-08-2023, 00:00:39,    150,    0.6,   12.4,   0.00,   0.01,  993.9,    0.4, -999.0
02-08-2023, 00:00:48,    150,    0.0,   12.4,   0.00,   0.00,  993.8,    0.5, -999.0
02-08-2023, 00:00:58,    149,    0.1,   12.4,   0.00,   0.01,  993.8,    0.1, -999.0
02-08-2023, 00:01:08,    150,    0.0,   12.5,   0.00,   0.00,  993.8,    0.2, -999.0
02-08-2023, 00:01:18,    149,    0.0,   12.5,   0.00,   0.01,  993.8,    0.2, -999.0
02-08-2023, 00:01:28,    150,    0.0,   12.4,   0.00,   0.00,  993.8,    0.4, -999.0
02-08-2023, 00:01:38,    150,    0.3,   12.5,   0.00,   0.01,  993.8,    0.3, -999.0
02-08-2023, 00:01:48,    149,    0.4,   12.4,   0.00,   0.00,  993.8,    0.4, -999.0
02-08-2023, 00:01:58,    150,    0.0,   12.4,   0.00,   0.01,  993.8,    0.2, -999.0
02-08-2023, 00:02:08,    149,    0.0,   12.4,   0.00,   0.00,  993.8,    0.5, -999.0
02-08-2023, 00:02:18,    150,    0.0,   12.5,   0.00,   0.01,  993.7,    0.6, -999.0
02-08-2023, 00:02:28,    149,    0.0,   12.5,   0.00,   0.00,  993.7,    0.3, -999.0
02-08-2023, 00:02:38,    149,    0.0,   12.5,   0.00,   0.01,  993.7,    0.2, -999.0
02-08-2023, 00:02:48,    149,    0.0,   12.5,   0.00,   0.00,  993.7,    0.3, -999.0
02-08-2023, 00:02:58,    149,    0.0,   12.5,   0.00,   0.00,  993.7,    0.1, -999.0
02-08-2023, 00:03:08,    149,    0.0,   12.4,   0.00,   0.01,  993.7,    0.2, -999.0
02-08-2023, 00:03:18,    149,    0.0,   12.5,   0.00,   0.00,  993.7,    0.4, -999.0
02-08-2023, 00:03:28,    149,    0.0,   12.5,   0.00,   0.01,  993.7,    0.3, -999.0
02-08-2023, 00:03:38,    149,    0.0,   12.3,   0.00,   0.00,  993.7,    0.2, -999.0
02-08-2023, 00:03:48,    149,    0.0,   12.5,   0.00,   0.00,  993.7,    0.3, -999.0
02-08-2023, 00:03:58,    149,    0.0,   12.3,   0.00,   0.01,  993.7,    0.3, -999.0
02-08-2023, 00:04:08,    150,    0.0,   12.5,   0.00,   0.00,  993.7,    0.3, -999.0
02-08-2023, 00:04:18,    149,    0.0,   12.5,   0.00,   0.00,  993.7,    0.4, -999.0
02-08-2023, 00:04:28,    149,    0.0,   12.5,   0.00,   0.00,  993.6,    0.4, -999.0
02-08-2023, 00:04:38,    123,    1.1,   12.5,   0.00,   0.01,  993.8,    0.6, -999.0
02-08-2023, 00:04:48,    124,    0.2,   12.5,   0.00,   0.00,  993.7,    0.2, -999.0
02-08-2023, 00:04:58,    124,    0.0,   12.4,   0.00,   0.00,  993.7,    0.3, -999.0
02-08-2023, 00:05:07,    135,    0.1,   12.5,   0.00,   0.01,  993.8,    0.6, -999.0
02-08-2023, 00:05:18,    142,    0.3,   12.4,   0.00,   0.00,  993.7,    0.4, -999.0
02-08-2023, 00:05:28,    142,    0.0,   12.4,   0.00,   0.00,  993.7,    0.3, -999.0
02-08-2023, 00:05:38,    142,    0.0,   12.5,   0.00,   0.01,  993.7,    0.4, -999.0
02-08-2023, 00:05:47,    142,    0.0,   12.4,   0.00,   0.00,  993.7,    0.4, -999.0
02-08-2023, 00:05:58,    142,    0.0,   12.5,   0.00,   0.00,  993.7,    0.2, -999.0
02-08-2023, 00:06:08,    141,    0.0,   12.5,   0.00,   0.01,  993.7,    0.2, -999.0
02-08-2023, 00:06:17,    141,    0.0,   12.5,   0.00,   0.00,  993.6,    0.2, -999.0
02-08-2023, 00:06:27,    142,    0.0,   12.5,   0.00,   0.00,  993.6,    0.2, -999.0
02-08-2023, 00:06:38,    142,    0.0,   12.4,   0.00,   0.00,  993.6,    0.4, -999.0
02-08-2023, 00:06:47,    141,    0.0,   12.5,   0.00,   0.00,  993.6,    0.3, -999.0
02-08-2023, 00:06:57,    140,    0.0,   12.5,   0.00,   0.01,  993.6,    0.3, -999.0
02-08-2023, 00:07:08,    141,    0.0,   12.4,   0.00,   0.00,  993.6,    0.5, -999.0
02-08-2023, 00:07:18,    142,    0.0,   12.4,   0.00,   0.00,  993.6,    0.3, -999.0
02-08-2023, 00:07:27,    141,    0.0,   12.6,   0.00,   0.00,  993.6,    0.2, -999.0
02-08-2023, 00:07:37,    141,    0.5,   12.6,   0.00,   0.00,  993.7,    0.6, -999.0
02-08-2023, 00:07:48,    135,    1.2,   12.7,   0.00,   0.00,  993.8,    0.3, -999.0
02-08-2023, 00:07:57,    145,    1.6,   12.6,   0.00,   0.01,  993.8,    0.4, -999.0
02-08-2023, 00:08:07,    145,    0.6,   12.4,   0.00,   0.00,  993.7,    0.4, -999.0
02-08-2023, 00:08:17,    144,    0.2,   12.4,   0.00,   0.00,  993.6,    0.4, -999.0
02-08-2023, 00:08:27,    144,    0.0,   12.3,   0.00,   0.01,  993.5,    0.6, -999.0
02-08-2023, 00:08:37,    144,    0.0,   12.4,   0.00,   0.00,  993.5,    0.2, -999.0
02-08-2023, 00:08:47,    144,    0.0,   12.4,   0.00,   0.00,  993.5,    0.2, -999.0
02-08-2023, 00:08:57,    145,    0.0,   12.4,   0.00,   0.00,  993.5,    0.2, -999.0
02-08-2023, 00:09:07,    145,    0.0,   12.4,   0.00,   0.01,  993.5,    0.6, -999.0
02-08-2023, 00:09:17,    177,    0.3,   12.5,   0.00,   0.00,  993.6,    0.2, -999.0
02-08-2023, 00:09:27,    175,    0.0,   12.4,   0.00,   0.00,  993.5,    0.7, -999.0
02-08-2023, 00:09:37,    176,    0.0,   12.4,   0.00,   0.00,  993.5,    0.2, -999.0
02-08-2023, 00:09:47,    175,    0.0,   12.5,   0.00,   0.01,  993.5,    0.6, -999.0
02-08-2023, 00:09:57,    175,    0.0,   12.4,   0.00,   0.00,  993.5,    0.5, -999.0
02-08-2023, 00:10:07,    175,    0.0,   12.5,   0.00,   0.00,  993.5,    0.4, -999.0
02-08-2023, 00:10:17,    175,    0.0,   12.4,   0.00,   0.00,  993.4,    0.2, -999.0
02-08-2023, 00:10:27,    177,    0.0,   12.5,   0.00,   0.01,  993.5,    0.3, -999.0
02-08-2023, 00:10:37,    175,    0.0,   12.5,   0.00,   0.00,  993.4,    0.4, -999.0
02-08-2023, 00:10:47,    175,    0.0,   12.5,   0.00,   0.00,  993.4,    0.3, -999.0
02-08-2023, 00:10:57,    175,    0.0,   12.6,   0.00,   0.00,  993.5,    0.5, -999.0
02-08-2023, 00:11:07,    151,    0.7,   12.6,   0.00,   0.00,  993.6,    0.4, -999.0
02-08-2023, 00:11:17,    125,    0.7,   12.6,   0.00,   0.01,  993.5,    0.3, -999.0
02-08-2023, 00:11:27,    125,    0.0,   12.5,   0.00,   0.00,  993.4,    0.3, -999.0
02-08-2023, 00:11:37,    125,    0.0,   12.4,   0.00,   0.00,  993.4,    0.3, -999.0
02-08-2023, 00:11:47,    125,    0.0,   12.5,   0.00,   0.00,  993.4,    0.3, -999.0
02-08-2023, 00:11:57,    125,    0.2,   12.5,   0.00,   0.00,  993.5,    0.4, -999.0
02-08-2023, 00:12:07,    125,    0.2,   12.5,   0.00,   0.00,  993.5,    0.3, -999.0
02-08-2023, 00:12:17,    137,    1.1,   12.7,   0.00,   0.01,  993.5,    0.4, -999.0
02-08-2023, 00:12:27,     99,    2.7,   12.6,   0.00,   0.00,  993.5,    0.3, -999.0
02-08-2023, 00:12:37,    143,    2.5,   12.5,   0.00,   0.00,  993.5,    0.4, -999.0
02-08-2023, 00:12:47,    148,    0.7,   12.5,   0.00,   0.00,  993.5,    0.4, -999.0
02-08-2023, 00:12:57,    132,    1.4,   12.6,   0.00,   0.01,  993.5,    0.3, -999.0
02-08-2023, 00:13:07,    133,    0.7,   12.5,   0.00,   0.00,  993.5,    0.6, -999.0
02-08-2023, 00:13:17,    144,    0.9,   12.5,   0.00,   0.00,  993.5,    0.4, -999.0
02-08-2023, 00:13:26,    143,    0.4,   12.5,   0.00,   0.00,  993.4,    0.3, -999.0
02-08-2023, 00:13:37,    144,    0.0,   12.4,   0.00,   0.01,  993.4,    0.4, -999.0
02-08-2023, 00:13:47,    144,    0.0,   12.4,   0.00,   0.00,  993.4,    0.1, -999.0
02-08-2023, 00:13:56,    144,    0.0,   12.3,   0.00,   0.00,  993.4,    0.3, -999.0
02-08-2023, 00:14:06,    144,    0.2,   12.5,   0.00,   0.00,  993.4,    0.3, -999.0
02-08-2023, 00:14:17,    171,    2.2,   12.3,   0.00,   0.00,  993.4,    0.4, -999.0
02-08-2023, 00:14:26,    167,    0.4,   12.3,   0.00,   0.00,  993.4,    0.3, -999.0
02-08-2023, 00:14:36,    160,    1.6,   12.4,   0.00,   0.01,  993.4,    0.3, -999.0
02-08-2023, 00:14:46,    164,    0.7,   12.5,   0.00,   0.00,  993.4,    0.4, -999.0
02-08-2023, 00:14:57,    159,    0.0,   12.3,   0.00,   0.00,  993.3,    0.4, -999.0
02-08-2023, 00:15:06,    159,    0.4,   12.4,   0.00,   0.00,  993.3,    0.5, -999.0
02-08-2023, 00:15:16,    158,    0.2,   12.4,   0.00,   0.01,  993.3,    0.1, -999.0
02-08-2023, 00:15:27,    137,    0.6,   12.3,   0.00,   0.00,  993.3,    0.3, -999.0
02-08-2023, 00:15:36,    139,    2.1,   12.4,   0.00,   0.00,  993.4,    0.2, -999.0
02-08-2023, 00:15:46,    140,    0.7,   12.3,   0.00,   0.00,  993.4,    0.1, -999.0
02-08-2023, 00:15:56,    107,    0.8,   12.4,   0.00,   0.01,  993.4,    0.1, -999.0
02-08-2023, 00:16:06,    109,    0.3,   12.3,   0.00,   0.00,  993.3,    0.4, -999.0
02-08-2023, 00:16:16,    125,    0.6,   12.4,   0.00,   0.00,  993.3,    0.7, -999.0
02-08-2023, 00:16:26,    118,    1.3,   12.4,   0.00,   0.00,  993.3,    0.3, -999.0
02-08-2023, 00:16:36,    139,    2.0,   12.4,   0.00,   0.00,  993.4,    0.0, -999.0
02-08-2023, 00:16:46,    138,    1.5,   12.4,   0.00,   0.00,  993.4,    0.5, -999.0
02-08-2023, 00:16:56,    138,    0.2,   12.3,   0.00,   0.01,  993.3,    0.3, -999.0
02-08-2023, 00:17:06,    132,    0.6,   12.4,   0.00,   0.00,  993.3,    0.8, -999.0
02-08-2023, 00:17:16,    132,    0.6,   12.4,   0.00,   0.00,  993.3,    0.5, -999.0
02-08-2023, 00:17:26,    132,    0.5,   12.4,   0.00,   0.00,  993.3,    0.5, -999.0
02-08-2023, 00:17:36,    142,    0.3,   12.4,   0.00,   0.00,  993.3,    0.4, -999.0
02-08-2023, 00:17:46,    141,    0.2,   12.4,   0.00,   0.01,  993.3,    0.3, -999.0
02-08-2023, 00:17:56,    141,    0.0,   12.3,   0.00,   0.00,  993.2,    0.2, -999.0
02-08-2023, 00:18:06,    141,    0.0,   12.4,   0.00,   0.00,  993.3,    0.3, -999.0
02-08-2023, 00:18:16,    142,    0.4,   12.4,   0.00,   0.00,  993.3,    0.3, -999.0
02-08-2023, 00:18:26,    141,    0.1,   12.5,   0.00,   0.00,  993.3,    0.3, -999.0
02-08-2023, 00:18:36,    141,    0.9,   12.4,   0.00,   0.00,  993.3,    0.3, -999.0
02-08-2023, 00:18:46,    144,    1.2,   12.5,   0.00,   0.00,  993.4,    0.4, -999.0
02-08-2023, 00:18:56,    144,    0.5,   12.4,   0.00,   0.00,  993.3,    0.3, -999.0
02-08-2023, 00:19:06,    111,    0.6,   12.3,   0.00,   0.00,  993.3,    0.3, -999.0
02-08-2023, 00:19:16,    169,    1.6,   12.4,   0.00,   0.01,  993.4,    0.4, -999.0
02-08-2023, 00:19:26,    164,    1.5,   12.4,   0.00,   0.00,  993.4,    0.4, -999.0
02-08-2023, 00:19:36,    163,    2.9,   12.3,   0.00,   0.00,  993.3,    0.3, -999.0
02-08-2023, 00:19:46,    172,    1.3,   12.2,   0.00,   0.00,  993.3,    0.4, -999.0
02-08-2023, 00:19:56,    172,    0.0,   12.2,   0.00,   0.01,  993.2,    0.3, -999.0
02-08-2023, 00:20:06,    172,    0.1,   12.3,   0.00,   0.00,  993.3,    0.5, -999.0
02-08-2023, 00:20:16,    172,    0.0,   12.2,   0.00,   0.00,  993.2,    0.7, -999.0
02-08-2023, 00:20:25,    172,    0.0,   12.1,   0.00,   0.00,  993.2,    0.3, -999.0
02-08-2023, 00:20:36,    172,    0.6,   12.3,   0.00,   0.00,  993.3,    0.4, -999.0
02-08-2023, 00:20:46,    172,    1.5,   12.4,   0.00,   0.00,  993.4,    0.4, -999.0
02-08-2023, 00:20:56,    133,    0.9,   12.3,   0.00,   0.01,  993.3,    0.4, -999.0
02-08-2023, 00:21:05,    145,    0.6,   12.2,   0.00,   0.00,  993.3,    0.4, -999.0
02-08-2023, 00:21:16,    142,    0.5,   12.2,   0.00,   0.00,  993.3,    0.5, -999.0
02-08-2023, 00:21:26,    140,    0.6,   12.2,   0.00,   0.00,  993.3,    0.3, -999.0
02-08-2023, 00:21:35,     99,    0.7,   12.3,   0.00,   0.00,  993.3,    0.4, -999.0
02-08-2023, 00:21:45,    112,    1.3,   12.3,   0.00,   0.01,  993.3,    0.4, -999.0
02-08-2023, 00:21:56,    128,    1.0,   12.3,   0.00,   0.00,  993.3,    0.5, -999.0
02-08-2023, 00:22:05,    123,    2.3,   12.3,   0.00,   0.00,  993.3,    0.4, -999.0
02-08-2023, 00:22:15,    122,    1.5,   12.3,   0.00,   0.00,  993.3,    0.6, -999.0
02-08-2023, 00:22:25,    138,    0.7,   12.3,   0.00,   0.00,  993.3,    0.2, -999.0
02-08-2023, 00:22:35,    138,    0.0,   12.3,   0.00,   0.01,  993.1,    0.2, -999.0
02-08-2023, 00:22:45,    138,    0.0,   12.3,   0.00,   0.00,  993.2,    0.3, -999.0
02-08-2023, 00:22:55,    138,    0.1,   12.3,   0.00,   0.00,  993.2,    0.2, -999.0
02-08-2023, 00:23:06,    136,    0.0,   12.3,   0.00,   0.00,  993.2,    0.1, -999.0
02-08-2023, 00:23:15,    138,    0.0,   12.3,   0.00,   0.00,  993.1,    0.5, -999.0
02-08-2023, 00:23:25,    139,    0.1,   12.3,   0.00,   0.00,  993.1,    0.5, -999.0
02-08-2023, 00:23:35,    139,    0.1,   12.4,   0.00,   0.00,  993.2,    0.3, -999.0
02-08-2023, 00:23:45,    138,    2.5,   12.3,   0.00,   0.00,  993.3,    0.3, -999.0
02-08-2023, 00:23:55,    147,    1.1,   12.3,   0.00,   0.00,  993.2,    0.4, -999.0
02-08-2023, 00:24:05,    172,    0.7,   12.3,   0.00,   0.01,  993.2,    0.4, -999.0
02-08-2023, 00:24:15,    171,    0.5,   12.3,   0.00,   0.00,  993.2,    0.4, -999.0
02-08-2023, 00:24:25,    170,    0.0,   12.2,   0.00,   0.00,  993.1,    0.3, -999.0
02-08-2023, 00:24:35,    170,    0.0,   12.3,   0.00,   0.00,  993.0,    0.8, -999.0
02-08-2023, 00:24:45,    170,    0.1,   12.3,   0.00,   0.00,  993.1,    0.1, -999.0
02-08-2023, 00:24:55,    142,    1.3,   12.2,   0.00,   0.00,  993.2,    0.3, -999.0
02-08-2023, 00:25:05,    141,    0.1,   12.3,   0.00,   0.00,  993.1,    0.3, -999.0
02-08-2023, 00:25:15,    150,    1.1,   12.3,   0.00,   0.01,  993.2,    0.4, -999.0
02-08-2023, 00:25:25,    169,    2.5,   12.3,   0.00,   0.00,  993.3,    0.6, -999.0
02-08-2023, 00:25:35,    147,    0.7,   12.2,   0.00,   0.00,  993.2,    0.2, -999.0
02-08-2023, 00:25:45,    149,    2.8,   12.2,   0.00,   0.00,  993.2,    0.3, -999.0
02-08-2023, 00:25:55,    149,    2.1,   12.2,   0.00,   0.00,  993.2,    0.4, -999.0
02-08-2023, 00:26:05,    147,    1.5,   12.2,   0.00,   0.00,  993.2,    0.4, -999.0
02-08-2023, 00:26:15,    174,    0.2,   12.1,   0.00,   0.01,  993.1,    0.5, -999.0
02-08-2023, 00:26:25,    159,    0.3,   12.2,   0.00,   0.00,  993.1,    0.2, -999.0
02-08-2023, 00:26:35,    159,    0.1,   12.2,   0.00,   0.00,  993.1,    0.4, -999.0
02-08-2023, 00:26:45,    159,    0.2,   12.2,   0.00,   0.00,  993.2,    0.4, -999.0
02-08-2023, 00:26:55,    156,    0.2,   12.2,   0.00,   0.00,  993.1,    0.4, -999.0
02-08-2023, 00:27:05,    140,    0.8,   12.3,   0.00,   0.00,  993.1,    0.4, -999.0
02-08-2023, 00:27:15,    139,    0.2,   12.2,   0.00,   0.00,  993.1,    0.5, -999.0
02-08-2023, 00:27:25,    160,    1.2,   12.2,   0.00,   0.00,  993.1,    0.5, -999.0
02-08-2023, 00:27:35,    159,    0.7,   12.2,   0.00,   0.00,  993.1,    0.3, -999.0
02-08-2023, 00:27:45,    160,    0.5,   12.3,   0.00,   0.00,  993.1,    0.3, -999.0
02-08-2023, 00:27:55,    125,    0.8,   12.3,   0.00,   0.00,  993.2,    0.5, -999.0
02-08-2023, 00:28:04,    143,    2.0,   12.2,   0.00,   0.00,  993.2,    0.4, -999.0
02-08-2023, 00:28:15,    145,    1.1,   12.2,   0.00,   0.01,  993.2,    0.3, -999.0
02-08-2023, 00:28:25,    133,    1.0,   12.2,   0.00,   0.00,  993.2,    0.4, -999.0
02-08-2023, 00:28:34,    159,    0.0,   12.1,   0.00,   0.00,  993.0,    0.4, -999.0
02-08-2023, 00:28:44,    159,    0.0,   12.1,   0.00,   0.00,  993.0,    0.0, -999.0
02-08-2023, 00:28:55,    158,    0.0,   12.1,   0.00,   0.00,  993.0,    0.4, -999.0
02-08-2023, 00:29:04,    159,    0.0,   12.2,   0.00,   0.00,  993.0,    0.0, -999.0
02-08-2023, 00:29:14,    158,    0.0,   12.2,   0.00,   0.00,  993.0,    0.0, -999.0
02-08-2023, 00:29:25,    158,    0.0,   12.2,   0.00,   0.00,  993.0,    0.1, -999.0
02-08-2023, 00:29:35,    158,    0.0,   12.2,   0.00,   0.00,  993.0,    0.2, -999.0
02-08-2023, 00:29:44,    203,    0.8,   12.3,   0.00,   0.00,  993.1,    0.5, -999.0
02-08-2023, 00:29:54,    202,    0.0,   12.2,   0.00,   0.00,  993.0,    0.3, -999.0
02-08-2023, 00:30:05,    128,    0.5,   12.2,   0.00,   0.00,  993.1,    0.2, -999.0
02-08-2023, 00:30:14,    167,    0.5,   12.3,   0.00,   0.00,  993.1,    0.6, -999.0
02-08-2023, 00:30:24,    168,    0.0,   12.2,   0.00,   0.00,  993.0,    0.5, -999.0
02-08-2023, 00:30:34,    168,    0.0,   12.2,   0.00,   0.00,  993.0,    0.3, -999.0
02-08-2023, 00:30:44,    168,    0.0,   12.1,   0.00,   0.00,  993.0,    0.3, -999.0
02-08-2023, 00:30:54,    168,    0.0,   12.1,   0.00,   0.00,  993.0,    0.3, -999.0
02-08-2023, 00:31:04,    156,    0.0,   12.2,   0.00,   0.00,  993.0,    0.5, -999.0
02-08-2023, 00:31:14,    131,    1.3,   12.3,   0.00,   0.00,  993.1,    0.0, -999.0
02-08-2023, 00:31:24,    124,    1.2,   12.3,   0.00,   0.00,  993.1,    0.1, -999.0
02-08-2023, 00:31:34,    133,    2.1,   12.5,   0.00,   0.00,  993.1,    0.8, -999.0
02-08-2023, 00:31:44,    138,    1.3,   12.3,   0.00,   0.00,  993.1,    0.7, -999.0
02-08-2023, 00:31:54,    141,    1.0,   12.3,   0.00,   0.00,  993.1,    0.0, -999.0
02-08-2023, 00:32:04,    146,    1.4,   12.2,   0.00,   0.00,  993.1,    0.0, -999.0
02-08-2023, 00:32:14,    154,    0.3,   12.2,   0.00,   0.00,  993.1,    0.3, -999.0
02-08-2023, 00:32:24,    157,    1.1,   12.2,   0.00,   0.00,  993.1,    1.0, -999.0
02-08-2023, 00:32:34,    158,    0.1,   12.1,   0.00,   0.01,  993.0,    0.3, -999.0
02-08-2023, 00:32:44,    160,    0.2,   12.2,   0.00,   0.00,  993.0,    0.2, -999.0
02-08-2023, 00:32:54,    139,    1.3,   12.3,   0.00,   0.00,  993.0,    0.1, -999.0
02-08-2023, 00:33:04,    155,    1.0,   12.2,   0.00,   0.00,  993.0,    0.2, -999.0
02-08-2023, 00:33:14,    155,    0.3,   12.0,   0.00,   0.00,  993.0,    0.7, -999.0
02-08-2023, 00:33:24,    156,    0.0,   12.2,   0.00,   0.00,  992.9,    0.3, -999.0
02-08-2023, 00:33:34,    156,    0.7,   12.2,   0.00,   0.00,  993.0,    0.5, -999.0
02-08-2023, 00:33:44,    156,    0.1,   12.2,   0.00,   0.00,  992.9,    0.2, -999.0
02-08-2023, 00:33:54,    156,    0.7,   12.2,   0.00,   0.00,  993.0,    1.1, -999.0
02-08-2023, 00:34:04,    157,    0.0,   12.3,   0.00,   0.00,  992.9,    0.4, -999.0
02-08-2023, 00:34:14,    127,    1.5,   12.3,   0.00,   0.00,  993.0,    0.3, -999.0
02-08-2023, 00:34:24,    122,    1.8,   12.3,   0.00,   0.00,  993.0,    0.4, -999.0
02-08-2023, 00:34:34,    142,    1.8,   12.3,   0.00,   0.00,  993.0,    0.6, -999.0
02-08-2023, 00:34:44,    143,    1.3,   12.2,   0.00,   0.00,  993.0,    0.1, -999.0
02-08-2023, 00:34:54,    110,    0.8,   12.3,   0.00,   0.00,  993.0,    0.4, -999.0
02-08-2023, 00:35:04,    129,    0.4,   12.2,   0.00,   0.00,  993.0,    0.7, -999.0
02-08-2023, 00:35:14,    133,    0.6,   12.3,   0.00,   0.00,  993.0,    0.3, -999.0
02-08-2023, 00:35:24,    131,    0.2,   12.3,   0.00,   0.00,  992.9,    0.5, -999.0
02-08-2023, 00:35:34,    132,    0.0,   12.2,   0.00,   0.00,  992.8,    0.2, -999.0
02-08-2023, 00:35:43,    156,    0.6,   12.1,   0.00,   0.00,  992.9,    0.3, -999.0
02-08-2023, 00:35:54,    156,    0.5,   12.2,   0.00,   0.00,  993.0,    0.3, -999.0
02-08-2023, 00:36:04,    138,    0.8,   12.1,   0.00,   0.00,  992.9,    0.5, -999.0
02-08-2023, 00:36:13,    124,    0.7,   12.2,   0.00,   0.00,  993.0,    0.4, -999.0
02-08-2023, 00:36:23,    119,    1.5,   12.3,   0.00,   0.00,  993.0,    0.5, -999.0
02-08-2023, 00:36:34,    118,    0.9,   12.2,   0.00,   0.00,  993.0,    0.5, -999.0
02-08-2023, 00:36:43,    139,    0.3,   12.2,   0.00,   0.00,  992.9,    0.5, -999.0
02-08-2023, 00:36:53,    142,    0.9,   12.2,   0.00,   0.00,  993.0,    0.7, -999.0
02-08-2023, 00:37:04,    162,    3.4,   12.3,   0.00,   0.00,  993.0,    0.2, -999.0
02-08-2023, 00:37:14,    164,    1.4,   12.2,   0.00,   0.00,  993.0,    0.5, -999.0
02-08-2023, 00:37:23,    160,    0.7,   12.0,   0.00,   0.00,  992.9,    0.6, -999.0
02-08-2023, 00:37:33,    124,    1.6,   12.3,   0.00,   0.00,  992.9,    0.2, -999.0
02-08-2023, 00:37:44,    123,    1.1,   12.3,   0.00,   0.00,  992.9,    0.5, -999.0
02-08-2023, 00:37:53,    107,    0.3,   12.2,   0.00,   0.00,  992.9,    0.3, -999.0
02-08-2023, 00:38:03,    131,    1.7,   12.1,   0.00,   0.00,  992.9,    0.3, -999.0
02-08-2023, 00:38:13,    126,    1.6,   12.2,   0.00,   0.00,  992.9,    0.4, -999.0
02-08-2023, 00:38:23,    165,    1.0,   12.3,   0.00,   0.00,  992.9,    0.4, -999.0
02-08-2023, 00:38:33,    137,    0.5,   12.3,   0.00,   0.00,  992.9,    0.2, -999.0
02-08-2023, 00:38:43,    107,    2.0,   12.2,   0.00,   0.00,  992.9,    0.5, -999.0
02-08-2023, 00:38:53,    107,    0.5,   12.2,   0.00,   0.00,  992.9,    0.6, -999.0
02-08-2023, 00:39:03,    134,    1.0,   12.2,   0.00,   0.00,  992.9,    0.2, -999.0
02-08-2023, 00:39:13,    101,    1.6,   12.2,   0.00,   0.00,  992.9,    0.7, -999.0
02-08-2023, 00:39:23,    112,    0.9,   12.3,   0.00,   0.00,  992.9,    0.1, -999.0
02-08-2023, 00:39:33,    149,    1.9,   12.3,   0.00,   0.00,  992.9,    0.3, -999.0
02-08-2023, 00:39:43,    127,    1.2,   12.4,   0.00,   0.00,  992.9,    0.1, -999.0
02-08-2023, 00:39:53,    128,    0.6,   12.3,   0.00,   0.00,  992.9,    0.6, -999.0
02-08-2023, 00:40:03,    128,    0.0,   12.3,   0.00,   0.00,  992.8,    0.2, -999.0
02-08-2023, 00:40:13,    131,    0.2,   12.3,   0.00,   0.00,  992.8,    0.3, -999.0
02-08-2023, 00:40:23,    140,    0.2,   12.3,   0.00,   0.00,  992.8,    0.3, -999.0
02-08-2023, 00:40:33,    109,    0.7,   12.3,   0.00,   0.00,  992.8,    0.3, -999.0
02-08-2023, 00:40:43,    121,    0.9,   12.3,   0.00,   0.00,  992.8,    0.8, -999.0
02-08-2023, 00:40:53,    152,    1.2,   12.3,   0.00,   0.00,  992.8,    0.3, -999.0
02-08-2023, 00:41:03,    152,    0.6,   12.3,   0.00,   0.00,  992.8,    0.0, -999.0
02-08-2023, 00:41:13,    154,    0.2,   12.3,   0.00,   0.00,  992.7,    0.1, -999.0
02-08-2023, 00:41:23,    154,    0.3,   12.1,   0.00,   0.00,  992.8,    0.2, -999.0
02-08-2023, 00:41:33,    153,    0.0,   12.3,   0.00,   0.00,  992.7,    0.4, -999.0
02-08-2023, 00:41:43,    153,    0.0,   12.3,   0.00,   0.00,  992.7,    0.3, -999.0
02-08-2023, 00:41:53,    154,    0.0,   12.2,   0.00,   0.00,  992.6,    0.4, -999.0
02-08-2023, 00:42:03,    154,    0.0,   12.3,   0.00,   0.00,  992.6,    0.4, -999.0
02-08-2023, 00:42:13,    174,    0.2,   12.3,   0.00,   0.00,  992.7,    0.2, -999.0
02-08-2023, 00:42:23,    121,    1.3,   12.3,   0.00,   0.00,  992.7,    0.5, -999.0
02-08-2023, 00:42:33,    135,    2.0,   12.4,   0.00,   0.00,  992.8,    0.2, -999.0
02-08-2023, 00:42:42,    102,    1.4,   12.3,   0.00,   0.00,  992.8,    0.3, -999.0
02-08-2023, 00:42:53,    152,    0.9,   12.3,   0.00,   0.00,  992.8,    0.4, -999.0
02-08-2023, 00:43:03,    153,    1.7,   12.3,   0.00,   0.00,  992.8,    0.4, -999.0
02-08-2023, 00:43:13,    152,    1.2,   12.1,   0.00,   0.00,  992.8,    0.3, -999.0
02-08-2023, 00:43:23,    153,    0.1,   12.3,   0.00,   0.00,  992.7,    0.1, -999.0
02-08-2023, 00:43:33,    152,    0.9,   12.3,   0.00,   0.00,  992.7,    0.2, -999.0
02-08-2023, 00:43:43,    129,    1.1,   12.3,   0.00,   0.00,  992.7,    0.3, -999.0
02-08-2023, 00:43:52,    141,    0.7,   12.3,   0.00,   0.00,  992.7,    0.6, -999.0
02-08-2023, 00:44:02,    116,    0.8,   12.3,   0.00,   0.00,  992.7,    0.6, -999.0
02-08-2023, 00:44:13,    129,    1.4,   12.2,   0.00,   0.00,  992.7,    0.2, -999.0
02-08-2023, 00:44:22,    130,    0.2,   12.3,   0.00,   0.00,  992.7,    0.4, -999.0
02-08-2023, 00:44:32,    130,    0.2,   12.3,   0.00,   0.00,  992.7,    0.3, -999.0
02-08-2023, 00:44:43,    132,    0.3,   12.2,   0.00,   0.00,  992.7,    0.4, -999.0
02-08-2023, 00:44:53,    146,    0.5,   12.2,   0.00,   0.00,  992.7,    0.2, -999.0
02-08-2023, 00:45:02,    144,    1.0,   12.3,   0.00,   0.00,  992.6,    0.4, -999.0
02-08-2023, 00:45:12,    109,    1.7,   12.3,   0.00,   0.00,  992.6,    0.2, -999.0
02-08-2023, 00:45:23,    106,    0.8,   12.3,   0.00,   0.00,  992.6,    0.4, -999.0
02-08-2023, 00:45:32,    153,    1.5,   12.3,   0.00,   0.00,  992.6,    0.4, -999.0
02-08-2023, 00:45:42,    167,    2.9,   12.3,   0.00,   0.00,  992.6,    0.3, -999.0
02-08-2023, 00:45:52,    126,    2.1,   12.2,   0.00,   0.00,  992.6,    0.4, -999.0
02-08-2023, 00:46:02,    128,    3.9,   12.2,   0.00,   0.00,  992.7,    0.2, -999.0
02-08-2023, 00:46:12,    133,    2.8,   12.2,   0.00,   0.00,  992.6,    0.4, -999.0
02-08-2023, 00:46:22,    131,    1.6,   12.2,   0.00,   0.00,  992.6,    0.3, -999.0
02-08-2023, 00:46:32,    130,    1.2,   12.3,   0.00,   0.00,  992.6,    0.2, -999.0
02-08-2023, 00:46:42,    104,    1.2,   12.3,   0.00,   0.00,  992.6,    0.3, -999.0
02-08-2023, 00:46:52,     99,    2.0,   12.3,   0.00,   0.00,  992.6,    0.2, -999.0